This is the latest recevied weather packets stored in our database for station/object AB4KN. If no packets are shown the sender has not sent any weather packets the latest 1 day(s).
| Time | Temp. | Humidity | Pressure | Rain* | Wind** | Luminosity | Snow |
|---|---|---|---|---|---|---|---|
| 1778018478 | 26.11° C | 34% | 1018.3 hPa | 0 mm | 0.89 m/s, 116° | 17 W/m² | - |
| 1778018175 | 26.11° C | 33% | 1018.6 hPa | 0 mm | 0 m/s | 18 W/m² | - |
| 1778017873 | 26.11° C | 33% | 1018.4 hPa | 0 mm | 2.68 m/s, 141° | 20 W/m² | - |
| 1778017571 | 26.67° C | 31% | 1018.6 hPa | 0 mm | 0 m/s | 19 W/m² | - |
| 1778017268 | 26.67° C | 31% | 1018.3 hPa | 0 mm | 0.89 m/s, 78° | 18 W/m² | - |
| 1778016965 | 26.67° C | 32% | 1018.5 hPa | 0 mm | 0 m/s | 20 W/m² | - |
| 1778016662 | 26.11° C | 32% | 1018.9 hPa | 0 mm | 0.89 m/s, 240° | 20 W/m² | - |
| 1778016358 | 26.11° C | 32% | 1018.6 hPa | 0 mm | 1.34 m/s, 224° | 20 W/m² | - |
| 1778016065 | 26.67° C | 32% | 1018.5 hPa | 0 mm | 0.45 m/s, 296° | 26 W/m² | - |
| 1778015752 | 26.67° C | 33% | 1018.5 hPa | 0 mm | 0 m/s | 21 W/m² | - |
| 1778015449 | 26.67° C | 31% | 1018.6 hPa | 0 mm | 1.34 m/s, 194° | 21 W/m² | - |
| 1778015146 | 26.67° C | 32% | 1018.5 hPa | 0 mm | 1.34 m/s, 58° | 23 W/m² | - |
| 1778014843 | 26.11° C | 34% | 1018.6 hPa | 0 mm | 0 m/s | 23 W/m² | - |
| 1778014541 | 26.67° C | 33% | 1018.6 hPa | 0 mm | 1.34 m/s, 288° | 23 W/m² | - |
| 1778014238 | 26.67° C | 34% | 1018.7 hPa | 0 mm | 1.34 m/s, 210° | 25 W/m² | - |
| 1778013935 | 26.11° C | 34% | 1018.8 hPa | 0 mm | 0.89 m/s, 198° | 27 W/m² | - |
| 1778013633 | 26.11° C | 34% | 1018.8 hPa | 0 mm | 0.89 m/s, 209° | 26 W/m² | - |
| 1778013329 | 26.11° C | 36% | 1019.1 hPa | 0 mm | 1.34 m/s, 199° | 25 W/m² | - |
| 1778013026 | 26.11° C | 34% | 1019 hPa | 0 mm | 1.79 m/s, 179° | 26 W/m² | - |
| 1778012722 | 26.11° C | 34% | 1019.3 hPa | 0 mm | 1.34 m/s, 245° | 27 W/m² | - |
| 1778012418 | 26.11° C | 34% | 1018.9 hPa | 0 mm | 1.34 m/s, 238° | 27 W/m² | - |
| 1778012116 | 26.11° C | 33% | 1019 hPa | 0 mm | 1.34 m/s, 178° | 28 W/m² | - |
| 1778011813 | 26.11° C | 33% | 1019.1 hPa | 0 mm | 0.45 m/s, 272° | 26 W/m² | - |
| 1778011511 | 26.11° C | 34% | 1019.3 hPa | 0 mm | 3.13 m/s, 214° | 32 W/m² | - |
| 1778011207 | 26.11° C | 36% | 1019.4 hPa | 0 mm | 0 m/s | 28 W/m² | - |
* Rain latest hour (hover to see other rain measurements)
** Current wind speed in m/s (hover to see current wind gust speed)